[[{"header":{"parameterUnit":"m.s-1","parameterCategory":1,"la1":30.2991,"la2":30.254,"lo1":-89.0895,"lo2":-89.0444,"dy":0.0017,"dx":0.0017,"nx":28,"ny":28,"refTime":"2023-09-27T03:00:00:Z","depth":0,"parameterNumber":2,"parameterNumberName":"U-component_of_WINDS"},"data":[0,0,0,0,0,0,0,0,0,0,0,0,0,0,0,0,0,0,0,0,0,0,0,0,0,0,0,0,0,0,0,0,0,0,0,0,0,0,0,0,0,0,0,0,0,0,0,0,0,0,0,0,0,0,0,0,0,0,-3.6358,-3.6359,0,-3.6409,-3.641,-3.641,-3.6348,-3.6346,-3.6344,-3.6341,-3.6393,-3.6396,-3.64,0,0,0,0,0,0,0,0,0,0,0,0,0,-3.6206,-3.6209,-3.6358,-3.6359,-3.6359,-3.6409,-3.641,-3.641,-3.6349,-3.6346,-3.6343,-3.634,-3.6392,-3.6396,-3.64,0,0,0,0,0,0,0,0,0,0,0,0,0,-3.6266,-3.621,-3.6358,-3.6334,-3.6333,-3.6409,-3.641,-3.6411,-3.6349,-3.6346,-3.6342,-3.6339,-3.639,-3.6396,-3.6401,-3.6502,0,0,-3.6417,-3.6419,0,0,0,0,0,0,0,0,-3.6263,-3.6272,-3.6337,-3.6336,-3.6335,-3.6369,-3.6375,-3.6441,-3.635,-3.6343,-3.6341,-3.6337,-3.6388,-3.6393,-3.641,-3.6504,-3.6506,-3.6417,-3.642,-3.6423,-3.6424,0,0,0,0,0,0,0,-3.6259,-3.6269,-3.6378,-3.6338,-3.6337,-3.6321,-3.6326,-3.6387,-3.6384,-3.6343,-3.6339,-3.6346,-3.6386,-3.6405,-3.6411,-3.6507,-3.6417,-3.6422,-3.6425,-3.6427,-3.6688,-3.6691,0,0,0,0,0,0,-3.6258,-3.6266,-3.6376,-3.638,-3.629,-3.6327,-3.6332,-3.6361,-3.6383,-3.6383,-3.6349,-3.6343,-3.6398,-3.6405,-3.6412,-3.6533,-3.6423,-3.6428,-3.6431,-3.6684,-3.6689,-3.6693,0,0,0,0,0,0,-3.6255,-3.6268,-3.6374,-3.6322,-3.6334,-3.6333,-3.6366,-3.6364,-3.6383,-3.6387,-3.6386,-3.6369,-3.6395,-3.6405,-3.648,-3.6534,-3.643,-3.6435,-3.668,-3.6686,-3.6691,-3.6775,0,0,0,0,0,0,-3.625,-3.6267,-3.6306,-3.6323,-3.6337,-3.6442,-3.637,-3.6368,-3.6392,-3.6385,-3.6406,-3.6406,-3.6393,-3.6473,-3.6486,-3.6539,-3.6439,-3.6675,-3.6682,-3.6689,-3.6767,-3.6783,-3.6796,0,0,0,0,0,-3.6245,-3.6327,-3.6308,-3.6322,-3.6386,-3.6445,-3.6453,-3.6438,-3.6397,-3.6436,-3.6438,-3.6405,-3.6526,-3.6481,-3.6495,-3.6551,-3.6671,-3.668,-3.6688,-3.6761,-3.678,-3.6796,0,0,0,0,0,0,-3.6316,-3.6329,-3.6308,-3.6398,-3.6421,-3.6435,-3.6483,-3.6458,-3.6493,-3.6484,-3.6463,-3.6468,-3.6549,-3.6557,-3.6507,-3.665,-3.6592,-3.6604,-3.6642,-3.666,-3.6674,-3.6671,-3.6443,0,0,0,0,0,-3.6342,-3.639,-3.6398,-3.6477,-3.649,-3.6485,-3.651,-3.6496,-3.6519,-3.6528,-3.6536,-3.656,-3.6603,-3.6632,-3.6671,-3.6768,-3.6772,-3.6813,-3.6828,-3.6839,-3.685,-3.6903,-3.6921,-3.6721,-3.6721,-3.672,0,0,-3.6396,-3.6409,-3.6441,-3.6491,-3.6508,-3.6558,-3.6493,-3.6548,-3.6585,-3.6536,-3.6609,-3.6615,-3.664,-3.6727,-3.6765,-3.6736,-3.6906,-3.685,-3.6859,-3.6864,-3.6913,-3.6932,-3.6949,-3.6726,-3.6725,-3.6724,0,0,-3.6521,-3.6535,-3.6603,-3.6621,-3.6646,-3.6642,-3.6659,-3.6676,-3.6679,-3.6751,-3.6716,-3.6759,-3.6834,-3.6853,-3.6872,-3.7005,-3.6976,-3.7018,-3.7093,-3.7145,-3.7161,-3.7175,-3.7223,-3.7241,-3.7029,-3.7029,-3.7029,0,-3.6585,-3.6659,-3.6641,-3.6699,-3.6723,-3.6681,-3.6749,-3.6767,-3.6804,-3.6822,-3.6788,-3.6882,-3.6895,-3.6986,-3.7019,-3.7035,-3.7054,-3.7016,-3.716,-3.7174,-3.7187,-3.7232,-3.7251,-3.7034,-3.7033,-3.7033,-3.7032,0,-3.6738,-3.6789,-3.6841,-3.6879,-3.6908,-3.6971,-3.6962,-3.6994,-3.6977,-3.6977,-3.7051,-3.7066,-3.7108,-3.7128,-3.7112,-3.7218,-3.7199,-3.7163,-3.7104,-3.7211,-3.7254,-3.7271,-3.7041,-3.7039,-3.7038,-3.7037,0,0,-3.6909,-3.6936,-3.6955,-3.6972,-3.6997,-3.7037,-3.7098,-3.714,-3.7168,-3.7195,-3.7246,-3.731,-3.7278,-3.73,-3.7286,-3.7331,-3.7436,-3.7289,-3.729,-3.7317,-3.7554,-3.7582,-3.7603,-3.7417,-3.742,-3.7422,-3.7553,0,-3.7035,-3.7141,-3.7127,-3.7229,-3.7277,-3.7238,-3.7291,-3.7313,-3.7314,-3.7355,-3.7356,-3.7402,-3.7355,-3.7368,-3.7411,-3.7414,-3.7484,-3.7404,-3.7465,-3.7467,-3.7461,-3.7625,-3.7654,-3.7776,-3.7569,-3.7572,-3.7574,0,-3.7196,-3.723,-3.7337,-3.7356,-3.7375,-3.7424,-3.7461,-3.7501,-3.7524,-3.7522,-3.7547,-3.7525,-3.7586,-3.7525,-3.761,-3.7556,-3.758,-3.7585,-3.7589,-3.7595,-3.7528,-3.7636,-3.7815,-3.7834,-3.76,-3.7598,-3.7596,0,-3.7312,-3.7384,-3.7458,-3.7473,-3.7496,-3.7531,-3.7542,-3.7562,-3.7589,-3.7621,-3.7638,-3.7678,-3.77,-3.773,-3.7719,-3.7676,-3.7807,-3.7744,-3.7807,-3.7808,-3.7837,-3.7836,-3.8023,-3.7851,-3.785,-3.785,-3.785,0,-3.7455,-3.7522,-3.751,-3.7556,-3.7631,-3.7613,-3.7687,-3.7693,-3.7711,-3.7757,-3.7725,-3.7769,-3.7751,-3.7794,-3.7786,-3.7858,-3.7867,-3.7868,-3.7865,-3.7872,-3.7872,-3.7888,-3.7879,-3.7855,-3.7854,-3.7853,-3.7852,0,-3.7597,-3.7592,-3.767,-3.7685,-3.7691,-3.7745,-3.7758,-3.7801,-3.78,-3.7859,-3.7872,-3.787,-3.7919,-3.791,-3.7964,-3.7958,-3.8049,-3.8035,-3.8041,-3.8039,-3.8102,-3.8097,-3.8307,-3.8335,-3.8143,-3.8145,-3.8147,0,-3.7689,-3.7741,-3.7762,-3.7791,-3.7805,-3.7852,-3.7879,-3.7863,-3.7892,-3.7923,-3.7962,-3.8008,-3.8044,-3.8124,-3.8128,-3.8169,-3.8156,-3.8227,-3.8162,-3.8168,-3.8159,-3.8157,-3.8162,-3.8241,-3.8243,-3.8245,-3.8246,0,-3.7854,-3.7849,-3.789,-3.793,-3.7963,-3.7993,-3.8021,-3.8046,-3.8032,-3.8067,-3.8117,-3.8145,-3.82,-3.8247,-3.8286,-3.8296,-3.827,-3.8266,-3.8283,-3.8291,-3.8293,-3.8294,-3.8078,-3.8262,-3.826,-3.8259,-3.8258,-3.8258,-3.7975,-3.8019,-3.8042,-3.8088,-3.8107,-3.8133,-3.8175,-3.8179,-3.822,-3.8265,-3.8252,-3.8309,-3.8331,-3.838,-3.8396,-3.844,-3.8414,-3.8438,-3.8444,-3.8451,-3.8459,-3.8285,-3.8447,-3.8446,-3.8446,-3.8445,-3.8445,0,-3.814,-3.8152,-3.8195,-3.8234,-3.8271,-3.8242,-3.8271,-3.8304,-3.8354,-3.8377,-3.8414,-3.8471,-3.8516,-3.8523,-3.8566,-3.86,-3.8589,-3.8612,-3.861,-3.8613,-3.848,-3.8461,-3.862,-3.862,-3.862,-3.862,-3.862,-3.862,-3.8229,-3.8303,-3.8301,-3.8383,-3.8395,-3.8451,-3.847,-3.8494,-3.8513,-3.8579,-3.8616,-3.862,-3.8637,-3.8681,-3.8721,-3.8722,-3.874,-3.8768,-3.8764,-3.864,-3.8622,-3.8606,-3.8589,-3.8772,-3.8772,-3.8894,-3.8895,-3.8896]},{"header":{"parameterUnit":"m.s-1","parameterCategory":1,"la1":30.2991,"la2":30.254,"lo1":-89.0895,"lo2":-89.0444,"dy":0.0017,"dx":0.0017,"nx":28,"ny":28,"refTime":"2023-09-27T03:00:00:Z","depth":0,"parameterNumber":3,"parameterNumberName":"V-component_of_WINDS"},"data":[0,0,0,0,0,0,0,0,0,0,0,0,0,0,0,0,0,0,0,0,0,0,0,0,0,0,0,0,0,0,0,0,0,0,0,0,0,0,0,0,0,0,0,0,0,0,0,0,0,0,0,0,0,0,0,0,0,0,-3.0477,-3.0477,0,-3.0492,-3.0492,-3.0493,-3.045,-3.0449,-3.0447,-3.0446,-3.0462,-3.0463,-3.0465,0,0,0,0,0,0,0,0,0,0,0,0,0,-3.0408,-3.041,-3.0476,-3.0477,-3.0477,-3.0492,-3.0492,-3.0493,-3.045,-3.0449,-3.0447,-3.0445,-3.0461,-3.0463,-3.0465,0,0,0,0,0,0,0,0,0,0,0,0,0,-3.0432,-3.041,-3.0476,-3.0458,-3.0456,-3.0492,-3.0492,-3.0493,-3.0451,-3.0449,-3.0447,-3.0445,-3.046,-3.0463,-3.0465,-3.052,0,0,-3.0473,-3.0474,0,0,0,0,0,0,0,0,-3.0431,-3.0435,-3.046,-3.0459,-3.0457,-3.0467,-3.0474,-3.0502,-3.0451,-3.0453,-3.0446,-3.0444,-3.0465,-3.0467,-3.0474,-3.0521,-3.0522,-3.0473,-3.0474,-3.0476,-3.0476,0,0,0,0,0,0,0,-3.0429,-3.0434,-3.0483,-3.0461,-3.0459,-3.0448,-3.0449,-3.0479,-3.047,-3.0452,-3.0449,-3.0452,-3.0464,-3.0472,-3.0474,-3.0522,-3.0473,-3.0475,-3.0477,-3.0478,-3.0614,-3.0616,0,0,0,0,0,0,-3.043,-3.0433,-3.0482,-3.0483,-3.0439,-3.0451,-3.0452,-3.0466,-3.0469,-3.0468,-3.0453,-3.045,-3.0469,-3.0471,-3.0475,-3.0539,-3.0476,-3.0478,-3.0479,-3.0612,-3.0614,-3.0617,0,0,0,0,0,0,-3.0429,-3.0435,-3.0482,-3.0457,-3.0462,-3.0454,-3.047,-3.0467,-3.0475,-3.047,-3.0468,-3.0464,-3.0467,-3.0471,-3.0509,-3.0539,-3.0479,-3.0481,-3.0609,-3.0613,-3.0616,-3.0669,0,0,0,0,0,0,-3.0427,-3.0435,-3.0456,-3.0458,-3.0464,-3.0516,-3.0472,-3.0469,-3.048,-3.0475,-3.0479,-3.0478,-3.0466,-3.0506,-3.0512,-3.0542,-3.0483,-3.0607,-3.0611,-3.0615,-3.0665,-3.0674,-3.0682,0,0,0,0,0,-3.0425,-3.0471,-3.0458,-3.0464,-3.049,-3.0518,-3.0521,-3.0507,-3.0483,-3.0504,-3.05,-3.0478,-3.0535,-3.051,-3.0516,-3.0547,-3.0605,-3.061,-3.0614,-3.0661,-3.0672,-3.0682,0,0,0,0,0,0,-3.0473,-3.0471,-3.0456,-3.0504,-3.0512,-3.0511,-3.0537,-3.0519,-3.0534,-3.0529,-3.051,-3.0511,-3.0553,-3.0554,-3.0526,-3.0601,-3.0565,-3.0572,-3.0599,-3.0609,-3.0618,-3.0617,-3.0485,0,0,0,0,0,-3.0489,-3.0512,-3.0509,-3.0551,-3.0556,-3.0546,-3.0558,-3.0546,-3.0553,-3.0556,-3.0555,-3.0563,-3.0582,-3.0596,-3.0613,-3.0664,-3.0664,-3.0689,-3.0697,-3.0704,-3.071,-3.0737,-3.0748,-3.0632,-3.0632,-3.0632,0,0,-3.0522,-3.0524,-3.054,-3.0561,-3.0565,-3.059,-3.0549,-3.0576,-3.0594,-3.056,-3.0596,-3.0596,-3.0603,-3.0648,-3.0667,-3.0649,-3.0742,-3.071,-3.0716,-3.0718,-3.0743,-3.0754,-3.0764,-3.0636,-3.0635,-3.0635,0,0,-3.0596,-3.0599,-3.0635,-3.064,-3.0648,-3.0641,-3.0649,-3.0652,-3.065,-3.0686,-3.0661,-3.0681,-3.0715,-3.0721,-3.0729,-3.0804,-3.0784,-3.081,-3.0854,-3.0881,-3.089,-3.0898,-3.0925,-3.0935,-3.0815,-3.0816,-3.0816,0,-3.0637,-3.0673,-3.0656,-3.0685,-3.0695,-3.0665,-3.07,-3.0706,-3.0719,-3.0726,-3.0706,-3.0748,-3.0751,-3.0796,-3.0815,-3.0822,-3.0831,-3.081,-3.089,-3.0898,-3.0905,-3.0931,-3.0941,-3.0819,-3.0818,-3.0818,-3.0818,0,-3.0722,-3.0748,-3.0775,-3.0789,-3.0801,-3.0834,-3.0821,-3.0836,-3.0823,-3.0818,-3.0854,-3.0856,-3.0874,-3.0883,-3.087,-3.0927,-3.0916,-3.0893,-3.0858,-3.092,-3.0943,-3.0953,-3.0823,-3.0822,-3.0821,-3.082,0,0,-3.0828,-3.0831,-3.0842,-3.0847,-3.0852,-3.0871,-3.0902,-3.0919,-3.0932,-3.0942,-3.0967,-3.0996,-3.0975,-3.0983,-3.0971,-3.0994,-3.1053,-3.0968,-3.0968,-3.0984,-3.1116,-3.1134,-3.1145,-3.1039,-3.1041,-3.1043,-3.1115,0,-3.0901,-3.0954,-3.0939,-3.0992,-3.1015,-3.0986,-3.1013,-3.1019,-3.1014,-3.1033,-3.1028,-3.1049,-3.1019,-3.1024,-3.1046,-3.1041,-3.1079,-3.1036,-3.1063,-3.1064,-3.1063,-3.1158,-3.1177,-3.1246,-3.1125,-3.1126,-3.1127,0,-3.0994,-3.1007,-3.1063,-3.1064,-3.1073,-3.1097,-3.1111,-3.1129,-3.1135,-3.113,-3.114,-3.1122,-3.1151,-3.1115,-3.1155,-3.1126,-3.1136,-3.1135,-3.1138,-3.114,-3.11,-3.1164,-3.1267,-3.1278,-3.1142,-3.114,-3.1139,0,-3.1067,-3.1098,-3.1135,-3.114,-3.1143,-3.116,-3.1162,-3.1166,-3.1177,-3.1189,-3.1196,-3.1211,-3.122,-3.1232,-3.1219,-3.1193,-3.1261,-3.1223,-3.1258,-3.1259,-3.1275,-3.1274,-3.1382,-3.128,-3.128,-3.1279,-3.1279,0,-3.115,-3.1186,-3.1167,-3.1191,-3.1229,-3.1211,-3.1249,-3.1247,-3.125,-3.1272,-3.1247,-3.1268,-3.1249,-3.1268,-3.1258,-3.1293,-3.1297,-3.1294,-3.1291,-3.1297,-3.1297,-3.1304,-3.1299,-3.1282,-3.1282,-3.1281,-3.1281,0,-3.1239,-3.1228,-3.1266,-3.1265,-3.1265,-3.1294,-3.1292,-3.1313,-3.1306,-3.1334,-3.134,-3.1329,-3.135,-3.1338,-3.1359,-3.1352,-3.1398,-3.1388,-3.1397,-3.1394,-3.143,-3.1427,-3.1547,-3.1562,-3.1449,-3.145,-3.1451,0,-3.1294,-3.132,-3.1321,-3.1334,-3.1337,-3.1358,-3.1369,-3.1352,-3.1364,-3.1372,-3.1392,-3.1411,-3.1426,-3.146,-3.1455,-3.1471,-3.1462,-3.1502,-3.1464,-3.1469,-3.1463,-3.1462,-3.1465,-3.151,-3.1512,-3.1513,-3.1514,0,-3.1392,-3.1385,-3.1402,-3.1418,-3.1432,-3.1443,-3.1451,-3.1463,-3.1446,-3.1461,-3.1482,-3.1493,-3.1515,-3.1534,-3.1547,-3.1548,-3.1529,-3.1526,-3.1535,-3.1542,-3.1546,-3.1545,-3.1419,-3.1523,-3.1522,-3.1522,-3.1521,-3.1521,-3.1466,-3.1488,-3.1492,-3.1512,-3.1517,-3.1525,-3.1545,-3.154,-3.1558,-3.1574,-3.1563,-3.1588,-3.1592,-3.1608,-3.1612,-3.1631,-3.1614,-3.1627,-3.1631,-3.1635,-3.164,-3.1542,-3.1633,-3.1633,-3.1632,-3.1632,-3.1632,0,-3.1564,-3.1565,-3.1583,-3.1597,-3.1612,-3.1591,-3.1599,-3.1614,-3.1636,-3.1642,-3.1656,-3.168,-3.1698,-3.1694,-3.171,-3.1726,-3.1717,-3.1731,-3.173,-3.1731,-3.1653,-3.1644,-3.1738,-3.1738,-3.1738,-3.1738,-3.1738,-3.1738,-3.1617,-3.1654,-3.1647,-3.1685,-3.1685,-3.171,-3.1717,-3.1724,-3.1729,-3.1757,-3.1772,-3.1768,-3.177,-3.1786,-3.1801,-3.1799,-3.1807,-3.1824,-3.1819,-3.1747,-3.1736,-3.1726,-3.1718,-3.1826,-3.1826,-3.1895,-3.1896,-3.1896]}]]